Location: Peterborough
(44.3091°N, 78.3197°W)
Time: 20:22:32
(UTC-04:00)

Altair - Pass Details

Date: 22 March 2023
Orbit: 1501 x 1682 km, 47.2° (Epoch: 04 June)

Event Time Altitude Azimuth Distance (km) Brightness Sun altitude
Rises 05:07:44 0° 177° (S) 4,741 9.9 -22.6°
Reaches altitude 10° 05:12:36 10° 156° (SSE) 3,725 9.5 -21.8°
Maximum altitude 05:17:21 15° 125° (SE) 3,302 9.6 -21.0°
Drops below altitude 10° 05:22:03 10° 94° (E) 3,678 10.4 -20.2°
Sets 05:26:45 0° 73° (ENE) 4,646 11.7 -19.4°
